{"data":{"norad_id":21639,"intl_designator":"1991-054B","name":"TDRS 5","alt_names":[],"object_type":"PAYLOAD","status":"ACTIVE","operator":null,"country":"US","launch_date":"1991-08-02","launch_site_code":"AFETR","launch_vehicle":null,"mission":null,"orbit_class":"UNKNOWN","rcs_meters":20.8608,"size_class":null,"mass_kg":null,"dimensions":null,"purposes":["comms"],"wikipedia_slug":null,"has_3d_model":false,"image_url":null,"decayed_at":null,"tle_current":{"epoch":"2026-05-24T18:23:34.387872Z","epoch_age_seconds":92416,"freshness":"FRESH","line1":"1 21639U 91054B   26144.76637023  .00000074  00000+0  00000+0 0  9990","line2":"2 21639  14.0744 353.9577 0006662 287.4947  69.3178  1.00265519127477","mean_motion":1.00265519,"eccentricity":0.0006662,"inclination_deg":14.0744,"raan_deg":353.9577,"arg_perigee_deg":287.4947,"mean_anomaly_deg":69.3178,"bstar":0,"rev_number":12747,"period_min":1436.1866515646,"perigee_km":35760.260325201,"apogee_km":35816.442954665,"semimajor_km":42166.488639933,"source":"CELESTRAK","updated_at":"2026-05-25T13:38:13.804327Z"}}}